Weather in Ras al-Khaimah

United Arab Emirates     25°48′18″N   55°58′21″E
temp.,
°C
wind,
m/s
gust,
m/s
humid.,
%
clouds,
%
prec.,
mm/h
press.,
hPa
HPBL,
m
15 april, thu
thu1501:00+28nne2226100 0.0 100811
04:00+26nw113790 0.0 100911
07:00+29sw332775 0.0 101169
10:00+34w4521100 0.0 10111049
13:00+34w78244 0.0 10101223
16:00+31w45322 0.0 1008745
19:00+27sw224781 0.0 100949
22:00+26sse224693 0.0 101023
16 april, fri
fri1601:00+25sse2247100 0.0 100920
04:00+24s3447100 0.0 100938
07:00+24s45536 0.0 1011154
10:00+30sw552915 0.0 1012768
13:00+30w763482 0.0 1011861
16:00+30wsw5530100 0.0 1009805
19:00+25wsw2354100 0.0 1010196
22:00+23s346689 0.0 1012121
17 april, sat
sat1701:00+21sse3469100 0.0 101173
04:00+22s3463100 0.0 101068
07:00+22s34605 0.0 1012167
10:00+28sw332862 0.0 1013737
13:00+31w652643 0.0 1011958
16:00+29w4429100 0.0 1010798
19:00+24wsw225173 0.0 101245
22:00+23sse2360100 0.0 101344
18 april, sun
sun1801:00+22sse3363100 0.0 101261
04:00+21sse336189 0.0 101238
07:00+23s334296 0.0 1014138
10:00+28wsw432572 0.0 1014752
13:00+30wnw542656 0.0 10131014
16:00+30w442162 0.0 1011810
19:00+24sw2249100 0.0 101247
22:00+24s2250100 0.0 101485
19 april, mon
mon1901:00+23sse335195 0.0 101242
04:00+22sse33469 0.0 101134
07:00+24sse333617 0.0 1012132
10:00+29w35280 0.0 1012906
13:00+31w68240 0.0 10101109
16:00+29wnw45270 0.0 1009940
19:00+25ssw11400 0.0 100812
22:00+22s11520 0.0 101016